Flag for U.S.A. Weather past 2 weeks in Aurora, Colorado, U.S.A.

Now
63 °F

Passing clouds.


Feels Like: 63 °F
Forecast: 58 / 87 °F
Wind: 8 mph from Southwest

Location: Buckley Air Force Base

Current Time: Jul 30, 2015 at 5:07:32 AM

Latest Report: Jul 30, 2015 at 3:58 AM


Visibility: 10 mi

Pressure: 30.09 "Hg (24.79 "Hg at 1647m altitude)

Humidity: 64%

Dew point: 50 °F

Location of AuroraLocation

Historic Weather in Aurora — Graph

°F

Aurora temperature yesterday

Maximum temperature yesterday: 83 °F (at 3:58 PM)
Minimum temperature yesterday: 57 °F (at 4:58 AM)
Average temperature yesterday: 71 °F

Past Weeks' High & Low Weather Summary

 TemperatureHumidityPressure
High92 °F (Jul 27, 4:58 PM)100% (Jul 19, 2:58 AM)30.14 "Hg (Jul 19, 2:58 AM)
Low54 °F (Jul 19, 5:58 AM)15% (Jul 17, 12:58 PM)29.59 "Hg (Jul 27, 5:58 PM)
Average72 °F50%29.90 "Hg
* Reported Jul 15 3:58 AM — Jul 30 3:58 AM, Aurora, Weather by CustomWeather, © 2015

Note: Actual official high and low records may vary slightly from our data, if they occured in-between our weather recording intervals... More about our weather records

Advertising

Aurora weather history for previous 24 hours

 ConditionsComfort  
Time TempWeatherWind HumidityBarometerVisibility
3:58 AM
Thu, Jul 30
63 °FPassing clouds.8 mph64%30.09 "Hg10 mi
2:58 AM65 °FPassing clouds.10 mph60%30.08 "Hg10 mi
1:58 AM67 °FPassing clouds.15 mph57%30.08 "Hg10 mi
12:58 AM69 °FPassing clouds.15 mph52%30.07 "Hg10 mi
11:58 PM
Wed, Jul 29
70 °FPassing clouds.13 mph49%30.09 "Hg10 mi
10:58 PM70 °FPassing clouds.10 mph51%30.09 "Hg10 mi
9:58 PM72 °FPartly cloudy.15 mph48%30.09 "Hg10 mi
8:58 PM73 °FBroken clouds.13 mph45%30.07 "Hg10 mi
7:58 PM76 °FBroken clouds.17 mph41%30.07 "Hg10 mi
6:58 PM79 °FBroken clouds.16 mph37%30.05 "Hg10 mi
5:58 PM82 °FBroken clouds.14 mph31%30.05 "Hg10 mi
4:58 PM83 °FScattered clouds.13 mph29%30.05 "Hg10 mi
3:58 PM83 °FScattered clouds.15 mph30%30.06 "Hg10 mi
2:58 PM82 °FScattered clouds.17 mph32%30.06 "Hg10 mi
1:58 PM81 °FPassing clouds.15 mph34%30.08 "Hg10 mi
12:58 PM81 °FPassing clouds.14 mph36%30.10 "Hg10 mi
11:58 AM80 °FScattered clouds.16 mph38%30.10 "Hg10 mi
10:58 AM76 °FScattered clouds.8 mph39%30.14 "Hg10 mi
9:58 AM73 °FScattered clouds.9 mph44%30.13 "Hg10 mi
8:58 AM69 °FScattered clouds.9 mph49%30.13 "Hg10 mi
7:58 AM66 °FScattered clouds.9 mph53%30.12 "Hg10 mi
6:58 AM63 °FPartly sunny.16 mph55%30.11 "Hg10 mi
5:58 AM61 °FPassing clouds.14 mph55%30.10 "Hg10 mi
Weather by CustomWeather, © 2015

See weather overviewHow to use our weather pages